Date String (YYYY-MM-DD hh:mm:ss) UTC,Instrument flags,absolute air pressure of the measurement (hPa),sample flow rate (lpm),inlet stack bypass flow (lpm),air temperature of the measurement (°C),ambient temperature measured by the external sensor (°C),aerosol sample conditioner tube jacket temperature (°C),OPC LED temperature (°C),internal box temperature (°C),relative humidity of the measurement (%),span deviation,mass concentration of particles derived from Lorenz-Mie calculation of OPC scattering (μg/m³),mass concentration of particles derived from Lorenz-Mie calculation of OPC scattering (μg/m³),mass concentration of particles derived from Lorenz-Mie calculation of OPC scattering (μg/m³)
DateTimeUTC,F1_M11,P_M11,Q1_M11,Q2_M11,T1_M11,T2_M11,T3_M11,T4_M11,T5_M11,U1_M11,ZSPAN_M11,X0_M11,X2_M11,X1_M11
2023-06-30 19:00:00,SystemResetWarning,0833.5,5.00,000.00,029.9,028.1,000.0,038.3,031.5,30.5,-001.8,0010.03,0004.51,0003.85
2023-06-30 19:01:00,SystemResetWarning,0833.6,5.00,000.00,029.9,026.4,000.0,038.2,031.3,29.8,-002.1,0010.77,0004.52,0003.81
2023-06-30 19:02:00,SystemResetWarning,0833.7,5.01,000.00,029.8,025.8,000.0,038.1,031.1,29.3,-002.3,0010.63,0004.45,0003.75
2023-06-30 19:03:00,SystemResetWarning,0833.7,5.01,000.00,029.7,026.0,000.0,038.1,030.8,29.5,-002.6,0010.37,0004.38,0003.68
2023-06-30 19:04:00,SystemResetWarning,0833.7,5.00,000.00,029.6,026.4,000.0,038.2,030.9,30.1,-002.6,0010.12,0004.28,0003.61
2023-06-30 19:05:00,SystemResetWarning,0833.7,5.00,000.00,029.6,026.7,000.0,038.2,031.0,31.0,-002.4,0010.05,0004.25,0003.58
2023-06-30 19:06:00,SystemResetWarning,0833.7,5.00,000.00,029.6,027.1,000.0,038.2,031.1,31.7,-002.1,0010.66,0004.29,0003.56
2023-06-30 19:07:00,SystemResetWarning,0833.8,4.99,000.00,029.6,027.4,000.0,038.2,031.1,32.4,-002.3,0011.10,0004.30,0003.54
2023-06-30 19:08:00,SystemResetWarning,0833.8,5.00,000.00,029.6,027.7,000.0,038.2,031.2,32.7,-002.1,0011.11,0004.34,0003.52
2023-06-30 19:09:00,SystemResetWarning,0833.8,5.00,000.00,029.7,027.9,000.0,038.2,031.2,32.3,0000.0,0010.94,0004.28,0003.50
2023-06-30 19:10:00,SystemResetWarning,0833.8,5.00,000.00,029.7,028.1,000.0,038.2,031.3,32.1,0000.0,0011.26,0004.24,0003.47
2023-06-30 19:11:00,SystemResetWarning,0833.8,4.99,000.00,029.7,028.2,000.0,038.3,031.3,31.9,0000.0,0010.83,0004.24,0003.46
2023-06-30 19:12:00,SystemResetWarning,0833.8,4.99,000.00,029.7,028.4,000.0,038.3,031.4,31.8,0000.0,0010.44,0004.22,0003.45
2023-06-30 19:13:00,SystemResetWarning,0833.8,5.00,000.00,029.8,028.5,000.0,038.3,031.4,31.7,0000.0,0010.32,0004.21,0003.45
2023-06-30 19:14:00,SystemResetWarning,0833.9,5.00,000.00,029.8,028.6,000.0,038.3,031.4,32.2,0000.0,0010.19,0004.22,0003.46
2023-06-30 19:15:00,SystemResetWarning,0833.8,5.00,000.00,029.8,028.7,000.0,038.3,031.5,32.5,0000.0,0010.82,0004.25,0003.48
2023-06-30 19:16:00,SystemResetWarning,0833.9,4.99,000.00,029.9,027.9,000.0,038.3,031.4,32.6,0000.0,0010.88,0004.27,0003.50
2023-06-30 19:17:00,SystemResetWarning,0833.9,5.00,000.00,029.8,026.2,000.0,038.1,031.2,32.4,0000.0,0010.50,0004.21,0003.50
2023-06-30 19:18:00,SystemResetWarning,0833.9,5.01,000.00,029.7,025.5,000.0,038.1,030.9,32.9,0000.0,0009.72,0004.19,0003.50
2023-06-30 19:19:00,SystemResetWarning,0833.8,5.01,000.00,029.6,025.7,000.0,038.1,030.7,33.1,0000.0,0009.75,0004.18,0003.51
2023-06-30 19:20:00,SystemResetWarning,0833.8,5.00,000.00,029.5,026.0,000.0,038.1,030.7,32.6,0000.0,0009.90,0004.22,0003.52
2023-06-30 19:21:00,SystemResetWarning,0833.8,4.99,000.00,029.5,026.5,000.0,038.1,030.8,32.7,0000.0,0009.80,0004.28,0003.53
2023-06-30 19:22:00,SystemResetWarning,0833.8,5.00,000.00,029.5,026.8,000.0,038.1,030.9,32.5,0000.0,0009.80,0004.29,0003.54
2023-06-30 19:23:00,SystemResetWarning,0833.8,5.01,000.00,029.5,027.2,000.0,038.1,031.0,32.3,0000.0,0009.67,0004.27,0003.52
2023-06-30 19:24:00,SystemResetWarning,0833.7,5.00,000.00,029.5,027.5,000.0,038.1,031.0,32.7,0000.0,0009.27,0004.21,0003.49
2023-06-30 19:25:00,SystemResetWarning,0833.7,4.99,000.00,029.5,027.7,000.0,038.1,031.1,32.5,0000.0,0009.33,0004.20,0003.45
2023-06-30 19:26:00,SystemResetWarning,0833.7,4.99,000.00,029.6,027.9,000.0,038.1,031.2,32.5,0000.0,0008.75,0004.17,0003.41
2023-06-30 19:27:00,SystemResetWarning,0833.7,5.00,000.00,029.6,028.1,000.0,038.1,031.2,32.5,0000.0,0008.36,0004.11,0003.38
2023-06-30 19:28:00,SystemResetWarning,0833.7,5.01,000.00,029.6,028.2,000.0,038.1,031.2,31.9,0000.0,0008.38,0004.08,0003.35
2023-06-30 19:29:00,SystemResetWarning,0833.7,5.01,000.00,029.6,028.3,000.0,038.1,031.3,31.5,0000.0,0009.15,0004.06,0003.33
2023-06-30 19:30:00,SystemResetWarning,0833.7,5.01,000.00,029.7,028.4,000.0,038.2,031.3,32.2,0000.0,0009.04,0003.98,0003.29
2023-06-30 19:31:00,SystemResetWarning,0833.7,5.00,000.00,029.7,028.5,000.0,038.2,031.4,32.6,0000.0,0008.95,0003.89,0003.25
2023-06-30 19:32:00,SystemResetWarning,0833.7,4.97,000.00,029.7,027.8,000.0,038.1,031.3,31.9,0000.0,0008.81,0003.82,0003.18
2023-06-30 19:33:00,SystemResetWarning,0833.8,5.00,000.00,029.7,026.1,000.0,038.0,031.1,32.1,0000.0,0008.56,0003.74,0003.14
2023-06-30 19:34:00,SystemResetWarning,0833.8,5.01,000.00,029.6,025.5,000.0,037.9,030.9,31.6,0000.0,0008.11,0003.68,0003.11
2023-06-30 19:35:00,SystemResetWarning,0833.8,5.01,000.00,029.5,025.6,000.0,038.0,030.6,31.7,0000.0,0008.18,0003.70,0003.10
2023-06-30 19:36:00,SystemResetWarning,0833.9,5.01,000.00,029.4,026.0,000.0,038.0,030.7,33.3,0000.0,0007.99,0003.66,0003.10
2023-06-30 19:37:00,SystemResetWarning,0833.9,4.99,000.00,029.4,026.4,000.0,038.0,030.7,33.2,0000.0,0007.96,0003.64,0003.10
2023-06-30 19:38:00,SystemResetWarning,0833.9,4.99,000.00,029.4,026.8,000.0,038.0,030.9,33.0,0000.0,0008.00,0003.68,0003.12
2023-06-30 19:39:00,SystemResetWarning,0834.0,5.00,000.00,029.4,027.1,000.0,038.0,030.9,32.4,0000.0,0008.02,0003.71,0003.14
2023-06-30 19:40:00,SystemResetWarning,0834.0,5.00,000.00,029.4,027.4,000.0,038.0,031.0,32.3,0000.0,0007.27,0003.74,0003.16
2023-06-30 19:41:00,SystemResetWarning,0834.0,5.00,000.00,029.5,027.7,000.0,038.0,031.0,33.5,0000.0,0007.26,0003.77,0003.20
2023-06-30 19:42:00,SystemResetWarning,0834.0,5.00,000.00,029.5,027.9,000.0,038.0,031.1,33.8,0000.0,0006.83,0003.79,0003.22
2023-06-30 19:43:00,SystemResetWarning,0834.0,5.00,000.00,029.5,028.0,000.0,038.0,031.1,32.6,0000.0,0007.78,0003.85,0003.26
2023-06-30 19:44:00,SystemResetWarning,0834.0,5.00,000.00,029.5,028.2,000.0,038.1,031.2,32.3,0000.0,0008.38,0003.98,0003.32
2023-06-30 19:45:00,SystemResetWarning,0834.0,5.00,000.00,029.6,028.3,000.0,038.1,031.2,32.6,0000.0,0008.88,0004.08,0003.38
2023-06-30 19:46:00,SystemResetWarning,0834.0,5.00,000.00,029.6,028.4,000.0,038.1,031.2,33.2,0000.0,0009.02,0004.08,0003.42
2023-06-30 19:47:00,SystemResetWarning,0834.0,5.00,000.00,029.6,028.5,000.0,038.1,031.3,32.5,0000.0,0009.36,0004.14,0003.44
2023-06-30 19:48:00,SystemResetWarning,0834.0,5.00,000.00,029.7,028.5,000.0,038.1,031.3,32.5,0000.0,0009.66,0004.22,0003.49
2023-06-30 19:49:00,SystemResetWarning,0834.0,4.99,000.00,029.7,028.0,000.0,038.1,031.3,32.4,0000.0,0009.66,0004.24,0003.51
2023-06-30 19:50:00,SystemResetWarning,0834.1,5.00,000.00,029.7,026.3,000.0,038.0,031.1,32.0,-001.2,0009.96,0004.25,0003.53
2023-06-30 19:51:00,SystemResetWarning,0834.1,5.00,000.00,029.6,025.6,000.0,037.9,030.9,32.6,0000.0,0010.37,0004.28,0003.55
2023-06-30 19:52:00,SystemResetWarning,0834.1,5.01,000.00,029.5,025.7,000.0,037.9,030.7,33.9,0000.0,0011.01,0004.32,0003.56
2023-06-30 19:53:00,SystemResetWarning,0834.2,5.00,000.00,029.4,026.1,000.0,038.0,030.7,32.8,0000.0,0011.28,0004.35,0003.58
2023-06-30 19:54:00,SystemResetWarning,0834.2,4.99,000.00,029.4,026.5,000.0,038.0,030.8,33.5,0000.0,0010.83,0004.38,0003.61
2023-06-30 19:55:00,SystemResetWarning,0834.4,5.00,000.00,029.4,026.9,000.0,038.0,030.9,32.8,0000.0,0010.47,0004.35,0003.60
2023-06-30 19:56:00,SystemResetWarning,0834.4,5.01,000.00,029.4,027.2,000.0,038.0,030.9,33.1,0000.0,0010.11,0004.33,0003.60
2023-06-30 19:57:00,SystemResetWarning,0834.4,4.99,000.00,029.4,027.5,000.0,038.0,031.0,33.6,0000.0,0010.25,0004.37,0003.61
2023-06-30 19:58:00,SystemResetWarning,0834.4,4.99,000.00,029.4,027.7,000.0,038.0,031.0,32.4,0000.0,0010.21,0004.40,0003.63
2023-06-30 19:59:00,SystemResetWarning,0834.5,4.99,000.00,029.5,027.9,000.0,038.0,031.1,32.3,0000.0,0009.85,0004.37,0003.63
